User: anonymous   Login
Location: Greenspot (historical)
(34.0858°N, 117.1109°W)
Time: 22:16:38
(UTC+00:00)
Language:

CBERS-1 - Orbit

View from above orbital plane
View from above orbital plane
View from above satellite
View from above satellite

Ground track
Ground track

The orbit data is extracted from the following two-line orbital elements,

1 25940U 99057A   24168.90592907  .00000420  00000-0  15959-3 0  9990
2 25940  98.8044 148.4088 0004997   5.6866 354.4375 14.36267509292656
Epoch (UTC): 16 June 2024 21:44:32
Eccentricity: 0.0004997
inclination: 98.8044°
perigee height: 767 km
apogee height: 774 km
right ascension of ascending node: 148.4088°
argument of perigee: 5.6866°
revolutions per day: 14.36267509
mean anomaly at epoch: 354.4375°
orbit number at epoch: 29265

The dashed part of the orbit path shows where the satellite is in the earth's shadow,  

DLR